Location: Bakhuizen
(52.8696°N, 5.4575°E)
Time: 02:49:31
(UTC+00:00)

Okean 3 - Pass Details

Date: 11 May 2021
Orbit: 575 x 601 km, 82.5° (Epoch: 14 June)

Event Time Altitude Azimuth Distance (km) Brightness Sun altitude
Exits shadow 23:50:48 46° 183° (S) 805 3.7 -18.9°
Maximum altitude 23:52:03 84° 101° (ESE) 602 3.4 -18.9°
Drops below altitude 10° 23:56:19 10° 12° (NNE) 1,927 7.3 -18.8°
Sets 23:58:31 0° 12° (NNE) 2,828 8.6 -18.8°
